Regional Weather Roundup
Issued by NWS

Home | Current Version | Previous Version | Text Only | Print | Product List | Glossary On
Versions: 1 2 3 4 5 6 7 8 9 10 11 12 13 14 15 16 17 18 19 20 21 22 23 24 25 26 27 28 29 30 31 32 33 34 35 36 37 38 39 40 41 42 43 44 45 46 47 48 49 50
216
ASUS45 KSLC 120710
RWRUT

UTAH REGIONAL WEATHER ROUNDUP
NATIONAL WEATHER SERVICE SALT LAKE CITY UT
1200 AM MST FRI FEB 12 2016

UTZ001>011-023>025-120800-

NORTHERN UTAH

CITY           SKY/WX    TMP DP  RH WIND       PRES   REMARKS
BRIGHAM CITY   CLOUDY    26  24  92 CALM      30.47R
HILL AFB       FOG       27  23  86 NW3       30.43R VSB 1/2
LOGAN          FOG       22  22 100 CALM      30.44R VSB 1/2
OGDEN          FOG       26  26 100 NW3       30.43R VSB 1/2
PROVO AIRPORT    N/A     16  12  86 CALM      30.42S VSB<1/4
SALT LAKE CITY CLOUDY    30  27  88 W6        30.44R FOG     WCI  24
VERNAL         CLOUDY    20  16  84 N5        30.41F FOG     WCI  13
WENDOVER       CLOUDY    30  25  80 CALM      30.44R
HEBER CITY     PTCLDY    18  12  79 CALM      30.39S
WEST JORDAN    CLOUDY    28  28 100 NW5       30.44R WCI  23

$$

UTZ012>022-026-027-120800-

SOUTHERN/CENTRAL UTAH

CITY           SKY/WX    TMP DP  RH WIND       PRES   REMARKS
BLANDING       CLEAR     33  23  65 N8        30.45S WCI  26
BRYCE CANYON   MOCLDY    26  15  63 W10       30.44F WCI  16
CEDAR CITY     PTCLDY    23  20  88 CALM      30.38S
DELTA          CLOUDY    16  15  95 NE3       30.44S VSB<1/4
HANKSVILLE     CLOUDY    32  30  93 CALM      30.43S
MILFORD        CLOUDY    11   8  88 S6        30.39F FOG     WCI   1
MOAB/CYNLANDS  PTCLDY    30  27  88 W3        30.40R
PRICE          PTCLDY    27  20  75 CALM      30.38F
ST GEORGE      MOSUNNY   46  25  42 S3        30.32R
KANAB          PTCLDY    36  30  80 NE5       30.39S WCI  32

$$

REGIONAL REPORTS     COLORADO/ARIZONA

CITY           SKY/WX    TMP DP  RH WIND       PRES   REMARKS
CRAIG, CO      CLOUDY    16  11  80 CALM      30.41S
GRAND JUNCTION CLOUDY    27  24  89 E6        30.41S WCI  20
RIFLE          CLOUDY    23  16  74 CALM      30.43S
MONTROSE       CLOUDY    25  19  78 SE7       30.45R WCI  17
CORTEZ         CLOUDY    25  20  81 NE9       30.40R WCI  15
PAGE, AZ       MOCLDY    42  30  62 SE3       30.36S
GRAND CANYON   MOCLDY    26  20  77 CALM      30.41S
KINGMAN        CLEAR     43  25  49 CALM      30.26S
FLAGSTAFF      PTCLDY    26  19  74 CALM      30.42F

$$

REGIONAL REPORTS    NEVADA/IDAHO/WYOMING

CITY           SKY/WX    TMP DP  RH WIND       PRES   REMARKS
LAS VEGAS, NV  CLEAR     55  22  27 S5        30.19S
ELY            PTCLDY    24  17  74 S14       30.38S WCI  12
ELKO           CLOUDY    18  15  88 NE6       30.37F WCI  10
POCATELLO, ID  CLOUDY    28  23  81 NE5       30.36S WCI  23
BURLEY         PTCLDY    31  28  89 NE9       30.31S WCI  23
EVANSTON, WY   CLOUDY    35  15  44 SW6       30.38R WCI  30
ROCK SPRINGS   CLOUDY    35  19  52 SW15      30.35F WCI  25

$$




USA.gov is the U.S. government's official web portal to all federal, state and local government web resources and services.